[[{"header":{"parameterUnit":"m.s-1","parameterCategory":2,"la1":30.2991,"la2":30.254,"lo1":-89.0895,"lo2":-89.0444,"dy":0.0017,"dx":0.0017,"nx":28,"ny":28,"refTime":"2024-04-01T21:00:00:Z","depth":"0","parameterNumber":2,"parameterNumberName":"U-component_of_CURRENTS"},"data":[0,0,0,0,0,0,0,0,0,0,0,0,0,0,0,0,0,0,0,0,0,0,0,0,0,0,0,0,0,0,0,0,0,0,0,0,0,0,0,0,0,0,0,0,0,0,0,0,0,0,0,0,0,0,0,0,0,0,0.1247,0.1247,0,0.1278,0.1279,0.1279,0.1287,0.1287,0.1287,0.1287,0.1299,0.13,0.13,0,0,0,0,0,0,0,0,0,0,0,0,0,0.1192,0.1193,0.1247,0.1247,0.1248,0.1278,0.1279,0.1279,0.1287,0.1287,0.1287,0.1287,0.1299,0.13,0.13,0,0,0,0,0,0,0,0,0,0,0,0,0,0.1218,0.1194,0.1247,0.1256,0.1258,0.1278,0.1279,0.1279,0.1287,0.1287,0.1287,0.1287,0.1299,0.13,0.13,0.1306,0,0,0.1302,0.1302,0,0,0,0,0,0,0,0,0.1217,0.122,0.1254,0.1256,0.1257,0.128,0.1264,0.1288,0.1287,0.1275,0.1287,0.1287,0.1292,0.1293,0.1298,0.1307,0.1308,0.1302,0.1303,0.1303,0.1303,0,0,0,0,0,0,0,0.1215,0.1219,0.1258,0.1255,0.1257,0.1259,0.1262,0.1269,0.1282,0.1276,0.1277,0.1282,0.1292,0.1297,0.1298,0.1308,0.1302,0.1303,0.1303,0.1303,0.1344,0.1345,0,0,0,0,0,0,0.1214,0.1217,0.1257,0.1259,0.1238,0.126,0.1264,0.1272,0.1283,0.1285,0.1282,0.1283,0.1296,0.1297,0.1299,0.1325,0.1303,0.1303,0.1304,0.1343,0.1344,0.1345,0,0,0,0,0,0,0.1213,0.1217,0.1256,0.1239,0.1245,0.1261,0.127,0.1272,0.1281,0.1288,0.1289,0.1289,0.1296,0.1298,0.1312,0.1325,0.1304,0.1304,0.1342,0.1344,0.1345,0.1366,0,0,0,0,0,0,0.1211,0.1217,0.1222,0.124,0.1246,0.1275,0.127,0.1273,0.1285,0.1286,0.1294,0.1295,0.1296,0.1311,0.1313,0.1325,0.1305,0.1342,0.1343,0.1344,0.1364,0.1368,0.137,0,0,0,0,0,0.1209,0.1219,0.1223,0.1227,0.1253,0.1276,0.1279,0.1289,0.1286,0.1295,0.13,0.1295,0.1321,0.1313,0.1314,0.1327,0.1341,0.1343,0.1344,0.1363,0.1367,0.137,0,0,0,0,0,0,0.1199,0.1221,0.1226,0.1242,0.126,0.1278,0.1288,0.1292,0.1303,0.1303,0.1304,0.1306,0.1322,0.1323,0.1314,0.1343,0.133,0.1332,0.1344,0.1348,0.1351,0.1354,0.1305,0,0,0,0,0,0.12,0.1213,0.1234,0.1248,0.1258,0.1272,0.1282,0.129,0.1302,0.1307,0.1312,0.132,0.133,0.1337,0.1345,0.1361,0.1396,0.1371,0.1374,0.1377,0.1381,0.1436,0.1445,0.135,0.135,0.135,0,0,0.1199,0.1214,0.1221,0.1247,0.1261,0.1279,0.1278,0.1297,0.131,0.1307,0.1324,0.1329,0.1337,0.1356,0.1363,0.1358,0.1429,0.1379,0.1381,0.1384,0.1438,0.1448,0.1456,0.1351,0.1351,0.1351,0,0,0.1207,0.1219,0.1234,0.1251,0.1276,0.1286,0.1293,0.1313,0.1321,0.1339,0.134,0.1355,0.1368,0.138,0.1386,0.1411,0.1442,0.1412,0.1433,0.1486,0.1495,0.1502,0.1593,0.1608,0.1416,0.1416,0.1416,0,0.1203,0.1227,0.1242,0.1262,0.1277,0.129,0.1309,0.1321,0.1342,0.1353,0.1347,0.1381,0.1381,0.1412,0.1418,0.1418,0.1467,0.1417,0.1491,0.1499,0.1507,0.1597,0.1614,0.1417,0.1417,0.1417,0.1417,0,0.1225,0.1242,0.1254,0.1282,0.13,0.132,0.1339,0.1356,0.1364,0.1376,0.1406,0.1414,0.1441,0.1438,0.1433,0.1485,0.1512,0.1488,0.1483,0.1518,0.1611,0.1628,0.1419,0.1419,0.1418,0.1418,0,0,0.1216,0.1259,0.1263,0.1279,0.1312,0.133,0.1355,0.1385,0.1412,0.1423,0.1463,0.1469,0.1482,0.149,0.1493,0.1527,0.1625,0.1531,0.1533,0.1623,0.1784,0.1828,0.1851,0.1617,0.1619,0.1621,0.1841,0,0.1228,0.1263,0.1283,0.1316,0.1336,0.1359,0.1384,0.1411,0.144,0.1481,0.1492,0.153,0.1501,0.1527,0.1555,0.1609,0.1666,0.157,0.1734,0.174,0.1775,0.187,0.1832,0.2026,0.1858,0.1861,0.1863,0,0.1241,0.1265,0.1295,0.1337,0.1349,0.1368,0.142,0.1448,0.1504,0.1529,0.157,0.1593,0.1654,0.1616,0.1742,0.1688,0.1741,0.1774,0.1783,0.1824,0.1814,0.1957,0.2064,0.2043,0.1889,0.1887,0.1885,0,0.1228,0.1272,0.1296,0.131,0.1358,0.1376,0.1404,0.1459,0.1498,0.1574,0.1627,0.1686,0.1752,0.1805,0.1884,0.1827,0.2033,0.1966,0.2062,0.2067,0.2067,0.2068,0.2171,0.2059,0.2058,0.2057,0.2057,0,0.1231,0.125,0.129,0.1303,0.1337,0.1374,0.1426,0.1463,0.154,0.1607,0.1656,0.1742,0.1801,0.1918,0.1949,0.2095,0.2103,0.2102,0.2132,0.2077,0.2077,0.2081,0.2038,0.2066,0.2064,0.2062,0.2061,0,0.1211,0.1238,0.1266,0.1313,0.133,0.1353,0.1431,0.1475,0.1556,0.1656,0.1691,0.1827,0.1994,0.2074,0.2208,0.2216,0.228,0.2358,0.2314,0.2333,0.2359,0.2318,0.2328,0.2266,0.2501,0.2503,0.2506,0,0.1203,0.1215,0.1262,0.128,0.1299,0.1347,0.1383,0.1465,0.1527,0.1714,0.1767,0.1966,0.2098,0.2342,0.2413,0.2538,0.2416,0.2559,0.2418,0.2398,0.2373,0.2207,0.2139,0.2449,0.2451,0.2452,0.2453,0,0.1184,0.1198,0.1221,0.1258,0.1291,0.1336,0.1402,0.1452,0.1574,0.1687,0.1866,0.1992,0.2256,0.2397,0.2574,0.2614,0.2453,0.2587,0.2569,0.2359,0.2182,0.2123,0.2292,0.2463,0.2462,0.2462,0.2461,0.2461,0.1163,0.1173,0.1203,0.1237,0.1274,0.1315,0.1349,0.1443,0.1552,0.1723,0.1879,0.2073,0.2326,0.2574,0.2601,0.2668,0.2557,0.2614,0.2581,0.2427,0.2304,0.2522,0.2707,0.2708,0.2708,0.2708,0.2708,0,0.114,0.1158,0.1185,0.1222,0.1248,0.1279,0.1356,0.1399,0.1515,0.1721,0.1886,0.2189,0.2371,0.2535,0.2715,0.2679,0.2481,0.2627,0.2376,0.2317,0.2551,0.2486,0.2628,0.2628,0.2628,0.2628,0.2628,0.2628,0.113,0.1144,0.1162,0.1189,0.1215,0.1242,0.1275,0.135,0.1487,0.172,0.1924,0.2093,0.2422,0.2678,0.2735,0.2668,0.2458,0.2378,0.2329,0.2505,0.2498,0.2492,0.2423,0.2549,0.2549,0.1996,0.1992,0.1989]},{"header":{"parameterUnit":"m.s-1","parameterCategory":2,"la1":30.2991,"la2":30.254,"lo1":-89.0895,"lo2":-89.0444,"dy":0.0017,"dx":0.0017,"nx":28,"ny":28,"refTime":"2024-04-01T21:00:00:Z","depth":"0","parameterNumber":3,"parameterNumberName":"V-component_of_CURRENTS"},"data":[0,0,0,0,0,0,0,0,0,0,0,0,0,0,0,0,0,0,0,0,0,0,0,0,0,0,0,0,0,0,0,0,0,0,0,0,0,0,0,0,0,0,0,0,0,0,0,0,0,0,0,0,0,0,0,0,0,0,0.0023,0.0023,0,-0.0023,-0.0023,-0.0024,-0.0054,-0.0054,-0.0054,-0.0054,-0.013,-0.0132,-0.0134,0,0,0,0,0,0,0,0,0,0,0,0,0,0.0068,0.0067,0.0023,0.0023,0.0022,-0.0023,-0.0023,-0.0024,-0.0054,-0.0054,-0.0054,-0.0054,-0.013,-0.0132,-0.0134,0,0,0,0,0,0,0,0,0,0,0,0,0,0.0038,0.0067,0.0023,0.0002,-0.0,-0.0022,-0.0023,-0.0024,-0.0054,-0.0054,-0.0054,-0.0055,-0.0129,-0.0132,-0.0134,-0.0146,0,0,-0.0143,-0.0144,0,0,0,0,0,0,0,0,0.004,0.0036,0.0006,0.0003,0.0001,-0.0033,-0.0035,-0.0066,-0.0054,-0.0033,-0.0054,-0.0055,-0.01,-0.0105,-0.0113,-0.0149,-0.0152,-0.0143,-0.0145,-0.0146,-0.0147,0,0,0,0,0,0,0,0.0042,0.0038,0.0005,0.0005,0.0002,-0.0012,-0.0016,-0.0041,-0.0065,-0.0035,-0.0038,-0.0043,-0.0102,-0.011,-0.0115,-0.0154,-0.0143,-0.0145,-0.0147,-0.0148,-0.0218,-0.0218,0,0,0,0,0,0,0.0049,0.004,0.0007,0.0004,0.002,-0.0012,-0.0017,-0.0022,-0.0064,-0.0071,-0.0042,-0.0044,-0.0105,-0.0112,-0.0118,-0.0144,-0.0146,-0.0148,-0.015,-0.0218,-0.0218,-0.0218,0,0,0,0,0,0,0.005,0.0046,0.0008,0.0021,0.0015,-0.0012,-0.0018,-0.0023,-0.0032,-0.0069,-0.0077,-0.0047,-0.0106,-0.0114,-0.0144,-0.0147,-0.015,-0.0152,-0.0218,-0.0218,-0.0218,-0.0191,0,0,0,0,0,0,0.0051,0.0047,0.0046,0.0021,0.0015,-0.0003,-0.0017,-0.0023,-0.0035,-0.0037,-0.0076,-0.0083,-0.0107,-0.014,-0.0147,-0.0151,-0.0154,-0.0217,-0.0218,-0.0218,-0.0191,-0.019,-0.0189,0,0,0,0,0,0.0053,0.0054,0.0046,0.0042,0.0015,-0.0003,-0.0007,-0.0028,-0.0034,-0.0037,-0.0067,-0.0082,-0.0147,-0.0143,-0.0151,-0.0155,-0.0217,-0.0218,-0.0218,-0.0192,-0.019,-0.0189,0,0,0,0,0,0,0.0074,0.0051,0.0042,0.0036,0.0019,-0.0008,-0.0012,-0.0025,-0.0049,-0.0052,-0.0086,-0.0096,-0.0123,-0.0143,-0.0137,-0.0177,-0.0184,-0.0186,-0.0161,-0.016,-0.0159,-0.0146,-0.0157,0,0,0,0,0,0.0078,0.0072,0.0049,0.0044,0.0038,0.0014,0.0005,-0.0008,-0.0033,-0.0043,-0.0071,-0.0102,-0.013,-0.0148,-0.0174,-0.0197,-0.0202,-0.0205,-0.0204,-0.0203,-0.0198,-0.0211,-0.021,-0.022,-0.022,-0.022,0,0,0.0084,0.0071,0.0067,0.0048,0.0034,0.0027,0.0008,-0.0003,-0.0012,-0.0049,-0.0069,-0.0098,-0.0135,-0.0161,-0.0175,-0.018,-0.0201,-0.0203,-0.0202,-0.0197,-0.0211,-0.021,-0.0209,-0.022,-0.022,-0.022,0,0,0.0096,0.0083,0.0084,0.0071,0.0053,0.0038,0.0037,0.0011,-0.0003,-0.0026,-0.0055,-0.0085,-0.0126,-0.0155,-0.0175,-0.0183,-0.0193,-0.0191,-0.0177,-0.019,-0.0189,-0.0188,-0.0182,-0.0181,-0.0192,-0.0192,-0.0192,0,0.0106,0.0102,0.0081,0.0079,0.0073,0.0045,0.0047,0.0027,-0.0006,-0.0016,-0.0029,-0.0089,-0.0123,-0.0157,-0.0163,-0.018,-0.018,-0.0179,-0.0187,-0.0186,-0.0186,-0.018,-0.0179,-0.019,-0.0191,-0.0191,-0.0191,0,0.0118,0.0115,0.0115,0.0103,0.0093,0.0089,0.0063,0.0049,0.0029,0.001,-0.0023,-0.007,-0.0102,-0.0123,-0.0148,-0.0166,-0.0164,-0.0181,-0.0187,-0.0183,-0.0177,-0.0177,-0.0189,-0.0189,-0.0189,-0.019,0,0,0.0141,0.0128,0.0127,0.0129,0.0107,0.0101,0.0085,0.0067,0.0068,0.0024,0.0022,-0.0046,-0.0064,-0.0087,-0.0124,-0.0146,-0.0147,-0.016,-0.0162,-0.0147,-0.0158,-0.0147,-0.0145,-0.0164,-0.0164,-0.0164,-0.015,0,0.0159,0.0167,0.015,0.0156,0.016,0.0131,0.0123,0.0101,0.0082,0.0075,0.0019,0.0006,-0.0052,-0.0058,-0.0094,-0.0126,-0.0147,-0.0148,-0.017,-0.017,-0.0156,-0.0145,-0.0149,-0.0137,-0.015,-0.015,-0.015,0,0.0177,0.0182,0.0193,0.019,0.0189,0.0186,0.0178,0.017,0.0145,0.0135,0.0103,0.0073,0.0033,-0.0009,-0.0075,-0.007,-0.0112,-0.0145,-0.0145,-0.0144,-0.0159,-0.0146,-0.0136,-0.027,-0.0149,-0.0149,-0.0149,0,0.021,0.0211,0.0223,0.0221,0.0212,0.0211,0.0207,0.0189,0.0204,0.0187,0.0213,0.014,0.0144,0.0061,-0.0009,-0.0037,-0.0063,-0.011,-0.0143,-0.0142,-0.0155,-0.0154,-0.0271,-0.0156,-0.0156,-0.0156,-0.0156,0,0.0235,0.0245,0.0241,0.0248,0.0272,0.025,0.0277,0.0265,0.0277,0.0326,0.0257,0.0295,0.0165,0.0134,0.0032,-0.0035,-0.003,-0.0132,-0.0139,-0.0144,-0.0143,-0.0268,-0.0341,-0.0156,-0.0156,-0.0156,-0.0156,0,0.0265,0.0261,0.0279,0.0281,0.0288,0.0306,0.0338,0.0364,0.0373,0.0442,0.0451,0.043,0.0397,0.0269,0.0165,0.0053,-0.0109,-0.0065,-0.005,-0.0057,-0.0237,-0.0308,-0.0409,-0.0479,-0.0112,-0.0111,-0.0111,0,0.0281,0.0293,0.0313,0.0336,0.034,0.037,0.0399,0.0411,0.0461,0.0541,0.0592,0.0586,0.0608,0.0456,0.0247,0.0077,-0.0064,-0.0043,-0.0116,-0.024,-0.0325,-0.0381,-0.0438,-0.0118,-0.0118,-0.0117,-0.0117,0,0.0315,0.0318,0.0338,0.039,0.0424,0.0474,0.0528,0.059,0.0638,0.0721,0.0839,0.0869,0.0725,0.0565,0.0319,0.0174,-0.0148,-0.0044,-0.0186,-0.0348,-0.0403,-0.0474,-0.0123,-0.0116,-0.0116,-0.0116,-0.0116,-0.0116,0.0343,0.0369,0.04,0.0451,0.05,0.0588,0.0664,0.0751,0.0874,0.1038,0.1034,0.1134,0.0858,0.0521,0.0291,-0.012,-0.0133,-0.0256,-0.033,-0.0373,-0.0455,-0.0086,-0.0083,-0.0083,-0.0083,-0.0083,-0.0083,0,0.0385,0.0415,0.0462,0.0536,0.0613,0.0627,0.076,0.0872,0.1059,0.1204,0.132,0.1274,0.0908,0.0526,-0.0028,-0.0343,-0.0491,-0.0516,-0.0623,-0.0669,-0.0351,-0.0368,-0.0409,-0.0409,-0.0409,-0.0409,-0.0409,-0.0409,0.041,0.0465,0.0492,0.0624,0.0688,0.083,0.0927,0.1105,0.1251,0.149,0.1595,0.1632,0.138,0.0292,-0.0438,-0.0628,-0.0854,-0.09,-0.1008,-0.0823,-0.0806,-0.0789,-0.0824,-0.0961,-0.0962,-0.1309,-0.1312,-0.1315]}],[{"header":{"parameterUnit":"m.s-1","parameterCategory":2,"la1":30.2991,"la2":30.254,"lo1":-89.0895,"lo2":-89.0444,"dy":0.0017,"dx":0.0017,"nx":28,"ny":28,"refTime":"2024-04-01T21:00:00:Z","depth":"2","parameterNumber":2,"parameterNumberName":"U-component_of_CURRENTS"},"data":[0,0,0,0,0,0,0,0,0,0,0,0,0,0,0,0,0,0,0,0,0,0,0,0,0,0,0,0,0,0,0,0,0,0,0,0,0,0,0,0,0,0,0,0,0,0,0,0,0,0,0,0,0,0,0,0,0,0,0.1198,0.1198,0,0.1232,0.1232,0.1233,0.1243,0.1243,0.1243,0.1242,0.126,0.1261,0.1261,0,0,0,0,0,0,0,0,0,0,0,0,0,0.1144,0.1145,0.1198,0.1198,0.1199,0.1232,0.1232,0.1233,0.1243,0.1243,0.1243,0.1242,0.126,0.1261,0.1261,0,0,0,0,0,0,0,0,0,0,0,0,0,0.1171,0.1145,0.1198,0.1209,0.121,0.1232,0.1232,0.1233,0.1243,0.1243,0.1242,0.1242,0.126,0.1261,0.1261,0.1269,0,0,0.1264,0.1264,0,0,0,0,0,0,0,0,0.1169,0.1172,0.1207,0.1208,0.121,0.1234,0.122,0.1245,0.1243,0.1229,0.1242,0.1242,0.1251,0.1252,0.1258,0.127,0.1271,0.1264,0.1265,0.1265,0.1265,0,0,0,0,0,0,0,0.1167,0.1171,0.121,0.1207,0.1209,0.1213,0.1216,0.1225,0.1239,0.123,0.1232,0.1237,0.1251,0.1257,0.1258,0.1271,0.1264,0.1265,0.1265,0.1266,0.1313,0.1314,0,0,0,0,0,0,0.1165,0.1169,0.1209,0.1212,0.119,0.1214,0.1218,0.1225,0.124,0.1242,0.1237,0.1237,0.1256,0.1257,0.1259,0.129,0.1265,0.1266,0.1266,0.1313,0.1314,0.1314,0,0,0,0,0,0,0.1164,0.1169,0.1208,0.1192,0.1197,0.1215,0.1223,0.1226,0.1237,0.1245,0.1247,0.1246,0.1256,0.1258,0.1276,0.129,0.1266,0.1267,0.1312,0.1313,0.1314,0.1338,0,0,0,0,0,0,0.1162,0.1168,0.1174,0.1192,0.1198,0.123,0.1224,0.1227,0.1241,0.1242,0.1253,0.1254,0.1256,0.1275,0.1277,0.129,0.1267,0.1311,0.1312,0.1314,0.1336,0.134,0.1343,0,0,0,0,0,0.116,0.1171,0.1174,0.1179,0.1206,0.1231,0.1235,0.1245,0.1241,0.1253,0.126,0.1254,0.1285,0.1276,0.1278,0.1292,0.131,0.1312,0.1314,0.1335,0.1339,0.1343,0,0,0,0,0,0,0.1152,0.1174,0.1178,0.1195,0.1215,0.1233,0.1245,0.1249,0.1263,0.1263,0.1264,0.1267,0.1287,0.1288,0.1278,0.1311,0.1297,0.1299,0.1312,0.1316,0.1319,0.1321,0.1268,0,0,0,0,0,0.1153,0.1166,0.1188,0.1202,0.1213,0.1229,0.1239,0.1248,0.1262,0.1268,0.1275,0.1284,0.1295,0.1304,0.1313,0.1333,0.1363,0.1343,0.1346,0.1349,0.1352,0.1405,0.1414,0.132,0.132,0.132,0,0,0.1152,0.1167,0.1174,0.1202,0.1217,0.1236,0.1235,0.1257,0.1271,0.1268,0.1288,0.1295,0.1303,0.1325,0.1334,0.1328,0.1399,0.1351,0.1354,0.1355,0.1408,0.1417,0.1425,0.1321,0.1321,0.1321,0,0,0.1161,0.1174,0.1189,0.1208,0.1234,0.1246,0.1253,0.1275,0.1284,0.1306,0.1306,0.1323,0.134,0.1351,0.1358,0.1385,0.1413,0.1388,0.1409,0.1461,0.1469,0.1476,0.1558,0.1572,0.1392,0.1392,0.1392,0,0.1159,0.1182,0.1198,0.122,0.1235,0.125,0.1271,0.1284,0.1309,0.1321,0.1316,0.1352,0.1353,0.1385,0.1392,0.1393,0.1439,0.1392,0.1466,0.1474,0.1481,0.1562,0.1578,0.1394,0.1394,0.1393,0.1393,0,0.1182,0.12,0.1213,0.1243,0.1262,0.1284,0.1305,0.1324,0.1333,0.1346,0.1379,0.1388,0.1415,0.1414,0.141,0.146,0.1484,0.1463,0.1456,0.1492,0.1576,0.1592,0.1396,0.1395,0.1395,0.1394,0,0,0.1174,0.1219,0.1223,0.124,0.1276,0.1294,0.1322,0.1353,0.1381,0.1396,0.1436,0.1445,0.1457,0.1465,0.1469,0.1502,0.1595,0.1506,0.1508,0.1589,0.1745,0.1741,0.1758,0.1591,0.1593,0.1595,0.1794,0,0.1187,0.1224,0.1246,0.128,0.1301,0.1326,0.1352,0.1381,0.1411,0.1453,0.1466,0.1504,0.1476,0.1502,0.153,0.1581,0.1634,0.1546,0.1696,0.1701,0.1694,0.1774,0.1625,0.1787,0.181,0.1813,0.1814,0,0.1202,0.1226,0.1258,0.1301,0.1313,0.1334,0.1387,0.1417,0.1473,0.15,0.1541,0.1564,0.1624,0.1589,0.1706,0.1657,0.1705,0.1736,0.1744,0.1739,0.1725,0.1749,0.1815,0.1841,0.1839,0.1837,0.1835,0,0.1188,0.1235,0.1258,0.1273,0.1323,0.1342,0.1372,0.1427,0.1466,0.1543,0.1595,0.1653,0.1717,0.1767,0.1838,0.1787,0.1976,0.1917,0.1964,0.1966,0.1866,0.1855,0.2003,0.2002,0.2002,0.2001,0.2001,0,0.1191,0.121,0.1253,0.1266,0.13,0.1339,0.1391,0.143,0.1506,0.1572,0.1623,0.1703,0.1764,0.1871,0.1899,0.2009,0.204,0.1996,0.2019,0.1873,0.1861,0.1911,0.1897,0.2009,0.2007,0.2006,0.2005,0,0.117,0.1198,0.1226,0.1275,0.1293,0.1317,0.1395,0.1438,0.1519,0.1617,0.1652,0.1781,0.1932,0.2007,0.2131,0.2115,0.2195,0.2221,0.2065,0.2064,0.2137,0.2122,0.2296,0.2297,0.2299,0.23,0.2301,0,0.1161,0.1173,0.1221,0.124,0.126,0.1309,0.1345,0.1427,0.1488,0.1667,0.1717,0.19,0.2012,0.2212,0.2241,0.2333,0.2311,0.2222,0.2071,0.2164,0.2168,0.2152,0.2136,0.1971,0.1969,0.1968,0.1967,0,0.1141,0.1155,0.1178,0.1216,0.1249,0.1295,0.1361,0.1408,0.1529,0.1635,0.1798,0.1906,0.2112,0.215,0.2268,0.2272,0.2185,0.2193,0.2361,0.1905,0.1869,0.1869,0.1863,0.1953,0.1955,0.1955,0.1956,0.1957,0.1119,0.1128,0.1158,0.1193,0.123,0.127,0.1303,0.1391,0.1491,0.1638,0.1782,0.191,0.1995,0.2106,0.209,0.2077,0.2199,0.2081,0.208,0.2083,0.1995,0.1961,0.2049,0.2051,0.2052,0.2054,0.2055,0,0.1093,0.1112,0.1139,0.1175,0.1199,0.1234,0.1307,0.134,0.1441,0.1599,0.1734,0.17,0.1777,0.1856,0.1828,0.1843,0.1762,0.176,0.1634,0.1653,0.1668,0.1551,0.1492,0.149,0.1487,0.1485,0,0,0.1081,0.1094,0.1111,0.1136,0.1164,0.1191,0.1223,0.1277,0.1377,0.1455,0.1533,0.1724,0.1834,0.1639,0.1634,0.1562,0.1578,0.1504,0.197,0.1844,0.1855,0.189,0.1737,0,0,0,0,0]},{"header":{"parameterUnit":"m.s-1","parameterCategory":2,"la1":30.2991,"la2":30.254,"lo1":-89.0895,"lo2":-89.0444,"dy":0.0017,"dx":0.0017,"nx":28,"ny":28,"refTime":"2024-04-01T21:00:00:Z","depth":"2","parameterNumber":3,"parameterNumberName":"V-component_of_CURRENTS"},"data":[0,0,0,0,0,0,0,0,0,0,0,0,0,0,0,0,0,0,0,0,0,0,0,0,0,0,0,0,0,0,0,0,0,0,0,0,0,0,0,0,0,0,0,0,0,0,0,0,0,0,0,0,0,0,0,0,0,0,-0.0106,-0.0106,0,-0.0149,-0.015,-0.015,-0.0179,-0.0179,-0.0179,-0.0179,-0.0253,-0.0254,-0.0256,0,0,0,0,0,0,0,0,0,0,0,0,0,-0.0068,-0.0068,-0.0106,-0.0106,-0.0107,-0.0149,-0.015,-0.015,-0.0179,-0.0179,-0.0179,-0.0179,-0.0252,-0.0254,-0.0256,0,0,0,0,0,0,0,0,0,0,0,0,0,-0.0095,-0.0068,-0.0106,-0.0126,-0.0128,-0.0149,-0.015,-0.015,-0.0179,-0.0179,-0.0179,-0.0179,-0.0251,-0.0254,-0.0256,-0.0268,0,0,-0.0265,-0.0266,0,0,0,0,0,0,0,0,-0.0093,-0.0096,-0.0122,-0.0125,-0.0127,-0.0159,-0.0163,-0.0191,-0.0179,-0.0159,-0.0179,-0.0179,-0.0224,-0.0229,-0.0236,-0.0271,-0.0274,-0.0265,-0.0267,-0.0268,-0.0268,0,0,0,0,0,0,0,-0.0091,-0.0095,-0.0123,-0.0123,-0.0126,-0.014,-0.0144,-0.0169,-0.019,-0.0161,-0.0163,-0.0168,-0.0225,-0.0233,-0.0238,-0.0275,-0.0265,-0.0267,-0.0269,-0.027,-0.0334,-0.0334,0,0,0,0,0,0,-0.0085,-0.0093,-0.0122,-0.0124,-0.011,-0.014,-0.0145,-0.0148,-0.0189,-0.0196,-0.0168,-0.0169,-0.0228,-0.0235,-0.0241,-0.0263,-0.0268,-0.027,-0.0272,-0.0334,-0.0334,-0.0334,0,0,0,0,0,0,-0.0084,-0.0087,-0.012,-0.011,-0.0115,-0.0141,-0.0144,-0.0149,-0.0156,-0.0194,-0.0201,-0.017,-0.0229,-0.0237,-0.0265,-0.0266,-0.0271,-0.0274,-0.0334,-0.0334,-0.0334,-0.0304,0,0,0,0,0,0,-0.0082,-0.0086,-0.0085,-0.0109,-0.0115,-0.0129,-0.0144,-0.015,-0.0159,-0.0161,-0.0198,-0.0205,-0.023,-0.0261,-0.0268,-0.027,-0.0276,-0.0334,-0.0334,-0.0334,-0.0305,-0.0303,-0.0302,0,0,0,0,0,-0.0081,-0.0077,-0.0085,-0.0088,-0.0113,-0.0128,-0.0133,-0.0152,-0.0159,-0.016,-0.0188,-0.0204,-0.0267,-0.0263,-0.0271,-0.0274,-0.0334,-0.0334,-0.0334,-0.0306,-0.0304,-0.0302,0,0,0,0,0,0,-0.0059,-0.008,-0.0089,-0.0092,-0.0108,-0.0133,-0.0136,-0.0148,-0.0171,-0.0173,-0.0208,-0.0217,-0.0241,-0.0262,-0.0257,-0.0293,-0.0302,-0.0304,-0.0278,-0.0276,-0.0274,-0.026,-0.0278,0,0,0,0,0,-0.0053,-0.0058,-0.008,-0.0082,-0.0087,-0.011,-0.0118,-0.0131,-0.0154,-0.0164,-0.019,-0.022,-0.0248,-0.0264,-0.029,-0.0311,-0.0319,-0.0318,-0.0316,-0.0315,-0.0309,-0.0323,-0.0322,-0.0335,-0.0335,-0.0335,0,0,-0.0046,-0.0058,-0.0061,-0.0078,-0.0091,-0.0096,-0.0115,-0.0124,-0.0132,-0.0169,-0.0186,-0.0215,-0.0252,-0.0276,-0.0288,-0.0294,-0.0314,-0.0315,-0.0313,-0.0308,-0.0323,-0.0322,-0.0321,-0.0335,-0.0335,-0.0335,0,0,-0.0031,-0.0043,-0.0041,-0.0051,-0.0068,-0.0083,-0.0083,-0.0106,-0.0119,-0.014,-0.017,-0.0197,-0.0237,-0.0266,-0.0285,-0.029,-0.0303,-0.0297,-0.0281,-0.0295,-0.0294,-0.0293,-0.0294,-0.0293,-0.0298,-0.0298,-0.0298,0,-0.002,-0.0022,-0.0042,-0.0042,-0.0048,-0.0074,-0.0071,-0.0089,-0.0119,-0.0128,-0.0141,-0.0199,-0.0232,-0.0265,-0.0269,-0.0286,-0.029,-0.0285,-0.0292,-0.0292,-0.0291,-0.0292,-0.0291,-0.0297,-0.0297,-0.0297,-0.0297,0,-0.0005,-0.0006,-0.0005,-0.0015,-0.0023,-0.0025,-0.005,-0.0062,-0.008,-0.0098,-0.0128,-0.0175,-0.0206,-0.0226,-0.0252,-0.0268,-0.0269,-0.0286,-0.0294,-0.0288,-0.0289,-0.0289,-0.0295,-0.0295,-0.0296,-0.0296,0,0,0.002,0.0009,0.001,0.0012,-0.0008,-0.0012,-0.0024,-0.0041,-0.0039,-0.008,-0.0082,-0.0146,-0.0163,-0.0187,-0.0224,-0.0246,-0.025,-0.0262,-0.0263,-0.0256,-0.0267,-0.0294,-0.0296,-0.0265,-0.0266,-0.0266,-0.0266,0,0.004,0.0051,0.0035,0.0043,0.0049,0.0021,0.0015,-0.0004,-0.0022,-0.0029,-0.0083,-0.0096,-0.0151,-0.0157,-0.0192,-0.0229,-0.025,-0.0247,-0.028,-0.028,-0.03,-0.0298,-0.0279,-0.028,-0.0266,-0.0266,-0.0267,0,0.006,0.0066,0.008,0.0078,0.0078,0.0077,0.0071,0.0064,0.0042,0.0032,0.0002,-0.0029,-0.007,-0.011,-0.0179,-0.0171,-0.0216,-0.0252,-0.0253,-0.0287,-0.0308,-0.0287,-0.0281,-0.0267,-0.0267,-0.0267,-0.0267,0,0.0091,0.0096,0.011,0.0108,0.0102,0.0103,0.0101,0.0085,0.0099,0.0083,0.0105,0.0035,0.0034,-0.0048,-0.0125,-0.0146,-0.0188,-0.0226,-0.0294,-0.0296,-0.0292,-0.0293,-0.0273,-0.0273,-0.0273,-0.0273,-0.0273,0,0.0117,0.0128,0.0128,0.0136,0.0161,0.0142,0.0169,0.0159,0.0169,0.0214,0.0149,0.0176,0.0053,0.0013,-0.0088,-0.0181,-0.0159,-0.0287,-0.0301,-0.0281,-0.0281,-0.0283,-0.0285,-0.0273,-0.0273,-0.0273,-0.0273,0,0.0146,0.0144,0.0164,0.0169,0.0177,0.0196,0.0228,0.0253,0.0261,0.0323,0.0331,0.0299,0.0249,0.0123,0.0013,-0.0109,-0.0211,-0.025,-0.0213,-0.0224,-0.0321,-0.032,-0.0337,-0.0338,-0.0339,-0.0339,-0.034,0,0.0162,0.0174,0.0197,0.0221,0.0226,0.0258,0.0287,0.0298,0.0343,0.0409,0.0452,0.0428,0.0416,0.0234,0.0031,-0.015,-0.0178,-0.0267,-0.0327,-0.0317,-0.0328,-0.0327,-0.0325,-0.03,-0.03,-0.03,-0.03,0,0.0194,0.0199,0.022,0.0272,0.0307,0.0356,0.0406,0.046,0.0504,0.0569,0.0655,0.0652,0.0484,0.0302,0.0038,-0.0097,-0.0248,-0.0279,-0.0262,-0.0296,-0.0285,-0.0296,-0.0295,-0.0302,-0.0302,-0.0302,-0.0301,-0.0301,0.022,0.0245,0.0277,0.0328,0.0378,0.0458,0.0524,0.0595,0.0695,0.0809,0.0798,0.0813,0.0574,0.0247,0.0011,-0.0239,-0.0245,-0.035,-0.0348,-0.0346,-0.0351,-0.0344,-0.037,-0.0371,-0.0371,-0.0371,-0.0371,0,0.0256,0.0287,0.0335,0.0404,0.0474,0.0495,0.061,0.0689,0.0831,0.0916,0.0983,0.0785,0.0563,0.0309,-0.0064,-0.0315,-0.0335,-0.0387,-0.0354,-0.0351,-0.0349,-0.0354,-0.0374,-0.0374,-0.0375,-0.0375,0,0,0.0278,0.0329,0.0354,0.0475,0.0539,0.0664,0.0746,0.086,0.0949,0.1031,0.1048,0.1,0.0667,0.0399,0.0068,-0.0138,-0.0187,-0.0187,-0.0162,-0.0081,-0.0075,-0.0309,-0.0312,0,0,0,0,0]}],[{"header":{"parameterUnit":"m.s-1","parameterCategory":2,"la1":30.2991,"la2":30.254,"lo1":-89.0895,"lo2":-89.0444,"dy":0.0017,"dx":0.0017,"nx":28,"ny":28,"refTime":"2024-04-01T21:00:00:Z","depth":"4","parameterNumber":2,"parameterNumberName":"U-component_of_CURRENTS"},"data":[0,0,0,0,0,0,0,0,0,0,0,0,0,0,0,0,0,0,0,0,0,0,0,0,0,0,0,0,0,0,0,0,0,0,0,0,0,0,0,0,0,0,0,0,0,0,0,0,0,0,0,0,0,0,0,0,0,0,0.0768,0.0769,0,0.08,0.0801,0.0801,0.0833,0.0834,0.0835,0.0835,0.086,0.086,0.086,0,0,0,0,0,0,0,0,0,0,0,0,0,0.0713,0.0714,0.0768,0.0769,0.0769,0.08,0.0801,0.0801,0.0833,0.0834,0.0835,0.0836,0.086,0.086,0.086,0,0,0,0,0,0,0,0,0,0,0,0,0,0.0739,0.0714,0.0768,0.0791,0.0793,0.08,0.0801,0.0801,0.0833,0.0834,0.0835,0.0836,0.086,0.086,0.086,0.0842,0,0,0.086,0.086,0,0,0,0,0,0,0,0,0.0737,0.074,0.0787,0.0789,0.0792,0.0816,0.0791,0.0815,0.0833,0.0816,0.0835,0.0836,0.0845,0.0846,0.0847,0.0843,0.0844,0.086,0.086,0.086,0.0861,0,0,0,0,0,0,0,0.0735,0.0739,0.0779,0.0787,0.0791,0.0792,0.0797,0.0795,0.0823,0.0817,0.082,0.0827,0.0846,0.0847,0.0848,0.0844,0.086,0.086,0.0861,0.0861,0.0916,0.0917,0,0,0,0,0,0,0.0736,0.0737,0.0778,0.078,0.0769,0.0793,0.0798,0.0805,0.0823,0.0827,0.0826,0.0828,0.0847,0.0848,0.0849,0.0892,0.086,0.0861,0.0861,0.0915,0.0916,0.0918,0,0,0,0,0,0,0.0735,0.0739,0.0776,0.0761,0.0766,0.0793,0.0801,0.0806,0.0826,0.083,0.0834,0.0844,0.0847,0.0849,0.0866,0.089,0.0861,0.0861,0.0913,0.0915,0.0917,0.0936,0,0,0,0,0,0,0.0733,0.0738,0.0749,0.0761,0.0767,0.079,0.0801,0.0806,0.0828,0.0832,0.0847,0.0849,0.0848,0.0866,0.0866,0.089,0.0861,0.0911,0.0914,0.0916,0.0933,0.0938,0.0942,0,0,0,0,0,0.0731,0.0739,0.075,0.0755,0.078,0.0791,0.0794,0.0814,0.0829,0.0836,0.0852,0.085,0.0884,0.0867,0.0867,0.0891,0.091,0.0913,0.0916,0.0931,0.0937,0.0942,0,0,0,0,0,0,0.0721,0.0743,0.0756,0.0771,0.0786,0.0797,0.0809,0.0822,0.084,0.085,0.0854,0.0857,0.0884,0.0886,0.0867,0.0919,0.0902,0.0905,0.0913,0.0919,0.0923,0.0946,0.0861,0,0,0,0,0,0.0723,0.0737,0.0756,0.0769,0.0779,0.0797,0.0808,0.0822,0.0837,0.0847,0.0859,0.0878,0.0893,0.0905,0.0914,0.0933,0.095,0.0955,0.096,0.0963,0.0984,0.1022,0.1031,0.0928,0.0928,0.0928,0,0,0.0723,0.0738,0.0747,0.0769,0.0783,0.0795,0.0806,0.0827,0.0845,0.0845,0.0877,0.0888,0.0901,0.0927,0.094,0.0934,0.1002,0.0967,0.097,0.0989,0.1026,0.1036,0.1045,0.093,0.093,0.093,0,0,0.0723,0.0745,0.0754,0.077,0.0797,0.0805,0.0815,0.0838,0.086,0.0886,0.0897,0.0928,0.0945,0.0965,0.0976,0.1013,0.1021,0.1019,0.1062,0.1098,0.1106,0.1114,0.1146,0.1156,0.1026,0.1026,0.1026,0,0.0723,0.0742,0.0758,0.0773,0.0791,0.0811,0.0826,0.0845,0.0873,0.0902,0.0903,0.0966,0.0969,0.1014,0.1031,0.1023,0.1045,0.1034,0.1103,0.1111,0.1119,0.1149,0.1161,0.1027,0.1027,0.1027,0.1027,0,0.0727,0.075,0.0759,0.0785,0.08,0.0819,0.0846,0.0874,0.0904,0.0932,0.0994,0.1009,0.1057,0.1059,0.1055,0.1118,0.1115,0.1097,0.1085,0.113,0.116,0.1171,0.1029,0.1028,0.1028,0.1028,0,0,0.0704,0.0753,0.0757,0.0778,0.0814,0.0824,0.0863,0.0906,0.095,0.0991,0.105,0.1089,0.1123,0.1139,0.1147,0.1178,0.124,0.1168,0.1169,0.1193,0.1325,0.1247,0.1252,0.1233,0.1235,0.1237,0.1322,0,0.0705,0.0736,0.076,0.079,0.0809,0.0848,0.0882,0.0929,0.0979,0.1038,0.1088,0.1144,0.1146,0.1179,0.1215,0.1233,0.1273,0.1219,0.1285,0.1287,0.1207,0.1264,0.1244,0.133,0.1333,0.1335,0.1336,0,0.0697,0.0723,0.0756,0.0809,0.0821,0.0846,0.0917,0.0959,0.1047,0.1091,0.1172,0.1208,0.1283,0.1264,0.1353,0.1321,0.134,0.1347,0.135,0.1283,0.1231,0.1279,0.1357,0.1355,0.1354,0.1352,0.1351,0,0.0668,0.0716,0.0745,0.0764,0.0824,0.0859,0.0903,0.0987,0.1042,0.1146,0.1195,0.1284,0.1339,0.1384,0.1418,0.1397,0.1495,0.146,0.1412,0.1406,0.1441,0.1431,0.1528,0.1528,0.1528,0.1528,0.1528,0,0.0653,0.0677,0.0741,0.0759,0.0806,0.086,0.0932,0.0992,0.1091,0.1162,0.1239,0.1302,0.1373,0.1433,0.145,0.1475,0.1532,0.1442,0.1431,0.1446,0.1436,0.1448,0.1438,0.1531,0.153,0.153,0.1529,0,0.0616,0.0659,0.0697,0.0769,0.0797,0.0839,0.0945,0.0996,0.11,0.1196,0.1234,0.134,0.1423,0.1475,0.1544,0.1512,0.1536,0.1527,0.1556,0.1541,0.1417,0.1407,0.149,0.1489,0.1487,0.1486,0.1485,0,0.06,0.0617,0.0697,0.0727,0.0766,0.084,0.0888,0.0994,0.1055,0.1213,0.1248,0.1363,0.1424,0.1468,0.152,0.1558,0.1536,0.1536,0.1469,0.1437,0.1418,0.141,0.1402,0.1482,0.1482,0.1481,0.1481,0,0.0568,0.0602,0.0634,0.07,0.0752,0.0808,0.0895,0.0927,0.1058,0.1149,0.1245,0.13,0.1385,0.1435,0.1471,0.149,0.1527,0.1519,0.1522,0.1458,0.1427,0.1408,0.1402,0.1475,0.1476,0.1477,0.1477,0,0.0546,0.0557,0.0608,0.0663,0.0722,0.0768,0.0817,0.0893,0.0965,0.113,0.1162,0.1282,0.1379,0.1403,0.144,0.1451,0.143,0.1375,0.1385,0.1392,0.1318,0.1261,0.1269,0,0,0,0,0,0.0519,0.053,0.0571,0.063,0.0686,0.0732,0.0814,0.0864,0.0978,0.102,0.1095,0.1173,0.1248,0.1308,0.1302,0.1391,0.1424,0.1376,0.1362,0.1445,0.1451,0.1372,0,0,0,0,0,0,0.05,0.0529,0.0549,0.0591,0.0631,0.0691,0.074,0.0817,0.0851,0.0971,0.1016,0.1113,0.1196,0.1249,0.1286,0.1303,0.1272,0.1452,0.1449,0.1441,0.1447,0.1452,0.1373,0,0,0,0,0]},{"header":{"parameterUnit":"m.s-1","parameterCategory":2,"la1":30.2991,"la2":30.254,"lo1":-89.0895,"lo2":-89.0444,"dy":0.0017,"dx":0.0017,"nx":28,"ny":28,"refTime":"2024-04-01T21:00:00:Z","depth":"4","parameterNumber":3,"parameterNumberName":"V-component_of_CURRENTS"},"data":[0,0,0,0,0,0,0,0,0,0,0,0,0,0,0,0,0,0,0,0,0,0,0,0,0,0,0,0,0,0,0,0,0,0,0,0,0,0,0,0,0,0,0,0,0,0,0,0,0,0,0,0,0,0,0,0,0,0,-0.0154,-0.0154,0,-0.0185,-0.0186,-0.0186,-0.022,-0.022,-0.0221,-0.0221,-0.028,-0.0281,-0.0283,0,0,0,0,0,0,0,0,0,0,0,0,0,-0.0144,-0.0144,-0.0154,-0.0154,-0.0155,-0.0185,-0.0186,-0.0186,-0.022,-0.022,-0.0221,-0.0221,-0.028,-0.0281,-0.0283,0,0,0,0,0,0,0,0,0,0,0,0,0,-0.0159,-0.0144,-0.0154,-0.0175,-0.0177,-0.0185,-0.0186,-0.0186,-0.0219,-0.022,-0.0221,-0.0221,-0.0279,-0.0281,-0.0283,-0.028,0,0,-0.0288,-0.0289,0,0,0,0,0,0,0,0,-0.0158,-0.0159,-0.0172,-0.0174,-0.0176,-0.0199,-0.0204,-0.0219,-0.0219,-0.0204,-0.0221,-0.0222,-0.0255,-0.0259,-0.0263,-0.0283,-0.0285,-0.0288,-0.0289,-0.029,-0.0291,0,0,0,0,0,0,0,-0.0157,-0.0158,-0.0167,-0.0172,-0.0175,-0.019,-0.0193,-0.0207,-0.0226,-0.0205,-0.0207,-0.021,-0.0257,-0.0261,-0.0265,-0.0286,-0.0288,-0.029,-0.0291,-0.0292,-0.0322,-0.0322,0,0,0,0,0,0,-0.0151,-0.0157,-0.0166,-0.0168,-0.0168,-0.0189,-0.0192,-0.0191,-0.0225,-0.0231,-0.021,-0.0212,-0.0258,-0.0263,-0.0267,-0.0265,-0.029,-0.0292,-0.0293,-0.0323,-0.0322,-0.0322,0,0,0,0,0,0,-0.015,-0.0151,-0.0164,-0.0163,-0.0166,-0.0189,-0.0187,-0.0191,-0.0201,-0.0228,-0.0235,-0.0216,-0.0259,-0.0265,-0.028,-0.0268,-0.0292,-0.0294,-0.0323,-0.0323,-0.0322,-0.0262,0,0,0,0,0,0,-0.015,-0.0151,-0.015,-0.0163,-0.0166,-0.0166,-0.0186,-0.0192,-0.0202,-0.0205,-0.0236,-0.0242,-0.026,-0.0277,-0.0281,-0.0271,-0.0295,-0.0323,-0.0323,-0.0322,-0.0264,-0.0259,-0.0255,0,0,0,0,0,-0.0149,-0.0141,-0.015,-0.0151,-0.0163,-0.0165,-0.0168,-0.0187,-0.0201,-0.02,-0.0222,-0.0241,-0.0278,-0.0278,-0.0283,-0.0273,-0.0323,-0.0323,-0.0322,-0.0266,-0.026,-0.0256,0,0,0,0,0,0,-0.0135,-0.0144,-0.0154,-0.0149,-0.0156,-0.0171,-0.0173,-0.0186,-0.0202,-0.0209,-0.0237,-0.0243,-0.0253,-0.0273,-0.0273,-0.0282,-0.0304,-0.0305,-0.0259,-0.0254,-0.025,-0.0254,-0.0297,0,0,0,0,0,-0.0131,-0.0129,-0.014,-0.0137,-0.014,-0.0157,-0.0162,-0.0174,-0.0188,-0.0197,-0.0218,-0.024,-0.0253,-0.0262,-0.028,-0.0283,-0.0311,-0.0281,-0.0277,-0.0273,-0.0281,-0.0304,-0.0302,-0.0321,-0.0321,-0.0321,0,0,-0.0125,-0.013,-0.013,-0.0134,-0.0144,-0.0137,-0.0162,-0.0166,-0.0161,-0.02,-0.0204,-0.0227,-0.0252,-0.0255,-0.0261,-0.0271,-0.0282,-0.0272,-0.0269,-0.0279,-0.0303,-0.0301,-0.0299,-0.032,-0.032,-0.032,0,0,-0.0107,-0.0116,-0.0108,-0.0111,-0.012,-0.0126,-0.0126,-0.0141,-0.0149,-0.0155,-0.0179,-0.0197,-0.0219,-0.0231,-0.0241,-0.0225,-0.026,-0.023,-0.0209,-0.0229,-0.0228,-0.0227,-0.0257,-0.026,-0.0226,-0.0225,-0.0225,0,-0.0101,-0.0092,-0.0106,-0.0097,-0.0097,-0.0118,-0.0106,-0.0111,-0.0129,-0.0133,-0.0151,-0.0187,-0.0207,-0.0209,-0.0205,-0.0214,-0.0238,-0.0222,-0.0223,-0.0223,-0.0223,-0.0254,-0.0258,-0.0222,-0.0223,-0.0223,-0.0223,0,-0.0076,-0.0071,-0.0066,-0.0061,-0.0059,-0.0054,-0.006,-0.0061,-0.0077,-0.0088,-0.0103,-0.0136,-0.016,-0.0163,-0.0181,-0.0186,-0.0207,-0.0214,-0.0233,-0.0217,-0.0252,-0.0256,-0.0218,-0.0219,-0.022,-0.0221,0,0,-0.0061,-0.005,-0.005,-0.0042,-0.0041,-0.0036,-0.0023,-0.0019,-0.0015,-0.004,-0.0044,-0.007,-0.0101,-0.0116,-0.014,-0.0159,-0.0177,-0.0186,-0.0188,-0.0211,-0.0232,-0.023,-0.0235,-0.0182,-0.0183,-0.0183,-0.0255,0,-0.0041,-0.0016,-0.0016,0.0009,0.002,0.0013,0.0029,0.0029,0.0016,0.0009,-0.0028,-0.0043,-0.0077,-0.0092,-0.0115,-0.0165,-0.0187,-0.0158,-0.025,-0.0253,-0.0248,-0.024,-0.0185,-0.0258,-0.0259,-0.026,-0.0261,0,-0.0021,-0.0007,0.002,0.0042,0.0047,0.0061,0.0075,0.0084,0.0074,0.0063,0.0034,0.0,-0.0037,-0.0067,-0.0147,-0.0128,-0.0179,-0.0218,-0.0221,-0.0247,-0.0259,-0.028,-0.027,-0.0269,-0.0268,-0.0268,-0.0267,0,-0.001,0.0017,0.0039,0.0046,0.007,0.0082,0.0092,0.0095,0.0108,0.0087,0.0085,0.0032,-0.0001,-0.0067,-0.0158,-0.0153,-0.0252,-0.0252,-0.0299,-0.03,-0.0308,-0.0308,-0.0308,-0.0308,-0.0308,-0.0307,-0.0307,0,0.0008,0.0024,0.0046,0.0057,0.009,0.0096,0.0123,0.0128,0.0133,0.015,0.0105,0.0097,-0.0004,-0.0072,-0.015,-0.0245,-0.0249,-0.0302,-0.0317,-0.0281,-0.0277,-0.0311,-0.0311,-0.031,-0.0309,-0.0309,-0.0308,0,0.0014,0.0027,0.0053,0.0082,0.0095,0.0113,0.015,0.0169,0.0171,0.0188,0.0183,0.0134,0.0049,-0.0056,-0.0173,-0.0233,-0.0322,-0.0355,-0.032,-0.0332,-0.0359,-0.0355,-0.0408,-0.0409,-0.0409,-0.0409,-0.041,0,0.002,0.0033,0.0069,0.0091,0.0104,0.0136,0.0164,0.0183,0.0206,0.0214,0.0223,0.0152,0.0106,-0.0053,-0.0172,-0.0325,-0.0342,-0.0393,-0.0367,-0.0359,-0.0369,-0.0364,-0.0359,-0.041,-0.041,-0.041,-0.041,0,0.003,0.0037,0.0062,0.0106,0.0137,0.0182,0.0219,0.0241,0.0266,0.0268,0.0269,0.0193,0.0094,-0.0038,-0.0167,-0.0273,-0.036,-0.0397,-0.0397,-0.0373,-0.0363,-0.0371,-0.0365,-0.0412,-0.0412,-0.0412,-0.0411,0,0.0034,0.005,0.0081,0.0121,0.0167,0.0216,0.0236,0.0272,0.0297,0.0311,0.0305,0.0212,0.0151,-0.0012,-0.0127,-0.0238,-0.0257,-0.0281,-0.0287,-0.0287,-0.0231,-0.0199,-0.0213,0,0,0,0,0,0.0036,0.0057,0.0097,0.0146,0.0194,0.0224,0.0273,0.0291,0.0312,0.0326,0.0324,0.0243,0.0091,0.0018,-0.0089,-0.0154,-0.0297,-0.0284,-0.0333,-0.042,-0.0418,-0.0372,0,0,0,0,0,0,0.0039,0.0071,0.0094,0.016,0.02,0.0258,0.0292,0.031,0.0321,0.0327,0.0248,0.0221,0.0063,0.0155,-0.0089,-0.0125,-0.0168,-0.0358,-0.036,-0.0421,-0.0419,-0.0418,-0.037,0,0,0,0,0]}]]